Location: Steilacoom
(47.1700°N, 122.5700°W)
Time: 14:39:14
(UTC-07:00)

Tiangong 2 - Visible Passes

Search period start: 21 March 2019 00:00
Search period end: 31 March 2019 00:00
Orbit: 379 x 390 km, 42.8° (Epoch: 21 March)

Date Brightness Start Highest point End Pass type
(mag) Time Alt. Az. Time Alt. Az. Time Alt. Az.
21 Mar 4.0 04:48:23 12° SE 04:48:23 12° SE 04:48:40 10° ESE visible
21 Mar 3.2 06:20:37 12° SW 06:21:59 14° SSW 06:23:49 10° S visible
22 Mar 3.3 05:24:08 15° SSE 05:24:08 15° SSE 05:25:09 10° SSE visible
